FW2567 Weather Reports


time (UTC)temp
F
wind
direction
speed
knots
gust
knots
rain 1hr
in
rain 24hr
in
rain mn
in
humidity
%
barometer
mb
20260901101530 48 97 0.9 3.5 0.00 0.00 0.00 86 1011.3
20260901100104 49 150 0.9 3.5 0.00 0.00 0.00 86 1011.3
20260901094608 49 146 1.7 4.3 0.00 0.00 0.00 86 1011.3
20260901093029 48 165 1.7 4.3 0.00 0.00 0.00 86 1011.3
20260901091530 48 153 1.7 4.3 0.00 0.00 0.00 85 1011.3
20260901090032 49 134 0.0 2.6 0.00 0.00 0.00 85 1011.2
20260901084531 49 185 0.9 3.5 0.00 0.00 0.00 85 1011.2
20260901083030 49 199 1.7 4.3 0.00 0.00 0.00 85 1011.4
20260901080030 50 128 0.9 4.3 0.00 0.00 0.00 84 1011.3
20260901074604 50 196 0.9 3.5 0.00 0.00 0.00 83 1011.2
20260901073032 50 218 0.9 3.5 0.00 0.00 0.00 83 1011.2
20260901071529 49 160 0.9 4.3 0.00 0.00 0.00 83 1011.1
20260901070032 50 174 0.0 3.5 0.00 0.00 0.00 82 1011.1
20260901064531 51 157 1.7 2.6 0.00 0.00 0.00 81 1011.2
20260901063029 52 169 0.0 2.6 0.00 0.00 0.00 81 1011.4
20260901061532 52 165 0.9 2.6 0.00 0.00 0.00 82 1011.5
20260901060031 51 157 2.6 3.5 0.00 0.00 0.00 82 1011.6
20260901053031 51 157 0.9 4.3 0.00 0.00 0.00 82 1011.5
20260901051531 52 151 1.7 4.3 0.00 0.00 0.00 80 1011.5
20260901050032 53 199 0.9 3.5 0.00 0.00 0.00 77 1011.6
20260901041530 57 142 2.6 5.2 0.00 0.00 0.00 70 1011.3
20260901034532 59 155 3.5 6.1 0.00 0.00 0.00 70 1011.0
20260901033033 60 148 3.5 5.2 0.00 0.00 0.00 70 1010.9
20260901031531 61 133 0.9 3.5 0.00 0.00 0.00 67 1010.8
20260901030035 0 0 0.0 0.0 0.00 0.00 0.00 100
20260901024532 64 162 2.6 4.3 0.00 0.00 0.00 62 1010.6
20260901023031 64 157 3.5 6.1 0.00 0.00 0.00 62 1010.4
20260901021530 64 149 1.7 5.2 0.00 0.00 0.00 63 1010.4
20260901020031 66 176 1.7 5.2 0.00 0.00 0.00 59 1010.3
20260901014529 69 222 1.7 3.5 0.00 0.00 0.00 53 1010.3
20260901013031 73 257 2.6 4.3 0.00 0.00 0.00 44 1010.2
20260901011528 76 270 2.6 5.2 0.00 0.00 0.00 39 1010.3
20260901010107 78 257 4.3 7.0 0.00 0.00 0.00 37 1010.3
20260901004533 80 269 3.5 7.8 0.00 0.00 0.00 33 1010.3
20260901003034 81 291 3.5 7.8 0.00 0.00 0.00 31 1010.4
20260901001528 81 326 4.3 9.6 0.00 0.00 0.00 30 1010.4
20260901000107 82 337 3.5 9.6 0.00 0.00 0.00 31 1010.6
20260831234531 82 291 3.5 9.6 0.00 0.00 0.00 31 1010.6
20260831231534 80 304 4.3 10.4 0.00 0.00 0.00 33 1010.9
20260831230144 81 290 5.2 10.4 0.00 0.00 0.00 33 1011.0
20260831224532 81 320 3.5 11.3 0.00 0.00 0.00 33 1011.2
20260831223104 81 327 4.3 12.2 0.00 0.00 0.00 35 1011.4
20260831221532 80 314 5.2 13.0 0.00 0.00 0.00 36 1011.5
20260831220030 79 338 3.5 8.7 0.00 0.00 0.00 37 1011.8
20260831214530 78 349 4.3 10.4 0.00 0.00 0.00 37 1011.9
20260831213034 78 322 3.5 9.6 0.00 0.00 0.00 38 1012.1
20260831211532 77 310 4.3 11.3 0.00 0.00 0.00 40 1012.3
20260831210103 77 305 4.3 8.7 0.00 0.00 0.00 40 1012.4
20260831204528 77 347 4.3 11.3 0.00 0.00 0.00 39 1012.6
20260831203028 77 340 5.2 9.6 0.00 0.00 0.00 38 1012.8
20260831201532 77 355 5.2 9.6 0.00 0.00 0.00 38 1013.1
20260831200106 77 354 6.1 12.2 0.00 0.00 0.00 38 1013.2
20260831194606 77 349 5.2 13.0 0.00 0.00 0.00 39 1013.5
20260831193139 76 347 5.2 12.2 0.00 0.00 0.00 40 1013.6
20260831191530 75 333 5.2 13.0 0.00 0.00 0.00 42 1014.0
20260831190032 74 314 5.2 13.9 0.00 0.00 0.00 44 1014.3
20260831184530 73 329 3.5 9.6 0.00 0.00 0.00 47 1014.6
20260831181531 71 325 2.6 6.1 0.00 0.00 0.00 55 1015.1
20260831180031 70 289 2.6 6.1 0.00 0.00 0.00 57 1015.4
20260831174528 70 267 1.7 4.3 0.00 0.00 0.00 59 1015.5
20260831173032 69 215 0.0 2.6 0.00 0.00 0.00 61 1015.6
20260831171532 68 136 0.9 2.6 0.00 0.00 0.00 64 1015.8
20260831170031 67 252 0.9 4.3 0.00 0.00 0.00 68 1016.0
20260831164530 67 31 0.0 2.6 0.00 0.00 0.00 74 1016.1
20260831163031 65 22 0.0 0.9 0.00 0.00 0.00 79 1016.3
20260831161608 62 22 0.0 0.9 0.00 0.00 0.00 83 1016.5
20260831160028 59 22 0.0 1.7 0.00 0.00 0.00 85 1016.6
20260831153028 55 135 0.0 0.0 0.00 0.00 0.00 91 1016.6
20260831151531 54 135 0.0 0.0 0.00 0.00 0.00 93 1016.6
20260831144531 47 135 0.0 1.7 0.00 0.00 0.00 95 1016.4
20260831143028 42 135 0.0 2.6 0.00 0.00 0.00 95 1016.3
20260831141607 41 135 0.0 3.5 0.00 0.00 0.00 95 1016.1
20260831140109 40 150 0.0 2.6 0.00 0.00 0.00 95 1016.1
20260831134532 40 157 0.0 1.7 0.00 0.00 0.00 95 1016.1
20260831131532 40 165 0.9 2.6 0.00 0.00 0.00 94 1016.1
20260831130028 40 152 1.7 2.6 0.00 0.00 0.00 94 1016.1
20260831124532 40 155 0.9 2.6 0.00 0.00 0.00 94 1016.1
20260831123029 41 157 0.9 1.7 0.00 0.00 0.00 94 1016.0
20260831121531 41 114 0.9 4.3 0.00 0.00 0.00 94 1016.0
20260831120106 41 127 0.9 3.5 0.00 0.00 0.00 94 1016.1
20260831113107 42 178 0.0 1.7 0.00 0.00 0.00 94 1016.1
20260831111530 42 164 0.0 2.6 0.00 0.00 0.00 94 1016.2
20260831110030 42 163 0.0 2.6 0.00 0.00 0.00 93 1016.2
20260831104531 43 136 0.0 0.0 0.00 0.00 0.00 93 1016.3